Regional Weather Roundup
Issued by NWS Wilmington, NC

Home | Current Version | Previous Version | Text Only | Print | Product List | Glossary On
Versions: 1 2 3 4 5 6 7 8 9 10 11 12 13 14 15 16 17 18 19 20 21 22 23 24 25 26 27 28
000
ASUS42 KILM 261713
RWRILM
RWRILM
REGIONAL HOURLY WEATHER ROUNDUP
NATIONAL WEATHER SERVICE WILMINGTON NC
100 PM EDT SUN MAR 26 2017

NOTE: "FAIR" INDICATES FEW OR NO CLOUDS BELOW 12,000 FEET WITH NO
SIGNIFICANT WEATHER AND/OR OBSTRUCTIONS TO VISIBILITY.

...............WFO WILMINGTON COUNTY WARNING AREA...............

......COASTAL NC AND SC COUNTIES......

CITY           SKY/WX    TMP DP  RH WIND       PRES   REMARKS
WILMINGTON     CLOUDY    73  53  49 SE13G18   30.24F
N MYRTLE BEACH PTSUNNY   72  57  59 E7        30.23F
MYRTLE BEACH   PTSUNNY   72  55  56 S8        30.24S

......INLAND NC AND SC COUNTIES.......

CITY           SKY/WX    TMP DP  RH WIND       PRES   REMARKS
LUMBERTON      CLOUDY    75  50  41 S10       30.21F
ELIZABETHTOWN  CLOUDY    73  52  47 S6        30.23F
WHITEVILLE     CLOUDY    74  50  42 S12       30.22F
FLORENCE       CLOUDY    75  53  46 SW12      30.21F
DARLINGTON     CLOUDY    74  54  49 S10       30.20F
KINGSTREE      CLOUDY    73  50  43 SE9       30.20F
HARTSVILLE     FAIR      77  52  41 S12       30.20F
BENNETTSVILLE  FAIR      73  55  53 SE10      30.20F
CONWAY         PTSUNNY   73  50  43 SE6       30.22F
GEORGETOWN     FAIR      77  54  44 SE14G20   30.23S
MARION         CLOUDY    72  46  40 S8        30.22F

....................REST OF NORTH CAROLINA......................

.........EASTERN NC.........

CITY           SKY/WX    TMP DP  RH WIND       PRES   REMARKS
CAPE HATTERAS  PTSUNNY   74  55  51 S8        30.28F
JACKSONVILLE   CLOUDY    74  52  46 S12       30.25F
MOREHEAD CITY  CLOUDY    74  57  55 SE10      30.26F
KENANSVILLE    CLOUDY    73  50  43 S6        30.23F
NEW BERN       CLOUDY    74  53  48 MISG      30.26F
ELIZABETH CITY MOSUNNY   74  52  46 VRB3      30.27F

.........CENTRAL NC.........

CITY           SKY/WX    TMP DP  RH WIND       PRES   REMARKS
RALEIGH DURHAM CLOUDY    72  52  49 VRB6      30.23F
ROCKY MOUNT    CLOUDY    72  54  53 S8        30.24F
ROANOKE RAPIDS NOT AVBL
FAYETTEVILLE   CLOUDY    75  50  41 S10       30.21F
HOFFMAN        PTSUNNY   73  53  47 S10G20    30.20F

.........WESTERN NC.........

CITY           SKY/WX    TMP DP  RH WIND       PRES   REMARKS
CHARLOTTE      PTSUNNY   70  54  56 S16       30.19F
GREENSBORO     PTSUNNY   69  53  56 S16G24    30.19F
HICKORY        NOT AVBL
BOONE          NOT AVBL
ASHEVILLE      NOT AVBL

.....................REST OF SOUTH CAROLINA.....................

.........EASTERN SC.........

CITY           SKY/WX    TMP DP  RH WIND       PRES   REMARKS
CHARLESTON     MOSUNNY   78  52  40 S12G20    30.20F
BEAUFORT MCAS  MOSUNNY   77  60  55 S10       30.20F
HILTON HEAD    SUNNY     75  64  69 SE6       30.21F

.........CENTRAL SC.........

CITY           SKY/WX    TMP DP  RH WIND       PRES   REMARKS
COLUMBIA       PTSUNNY   77  55  46 S12G18    30.17F
ORANGEBURG     MOSUNNY   75  55  49 S12       30.19F
SUMTER SHAW    MOSUNNY   75  54  47 S10       30.17F

.........WESTERN SC.........

CITY           SKY/WX    TMP DP  RH WIND       PRES   REMARKS
GREENVILLE     NOT AVBL
ROCK HILL      PTSUNNY   71  55  56 SW10G20   30.18F
ANDERSON       CLOUDY    69  58  67 S8        30.15F
CLEMSON        NOT AVBL
GREENWOOD      CLOUDY    67  57  70 S10       30.18F


...................COASTAL AND OFFSHORE REPORTS..................

................LOCAL PIERS AND NC RESERVE................


STATION/POSITION TIME  SKY/WX   TEMP    WIND        PRES    VSBY
                                AIR SEA DIR/SP/G
                 (UTC)          (F)     (DEG/KT/KT) (MB)    (MI)
JOHNY MRCER PIER 1648            64 58  150/  7/  8 1023.3F
NC RESRV MASNBRO 1545            70     170/  3     1024.0
OCEAN CREST PIER NOT AVBL
SPRINGMAID  PIER 1648                               1023.4S


................COASTAL AND OFFSHORE BUOYS................


STATION/POSITION TIME  SKY/WX   TEMP    WIND        PRES    VSBY
                                AIR SEA DIR/SP/G
                 (UTC)          (F)     (DEG/KT/KT) (MB)    (MI)
DIMNDSHOAL 41025 1650            70 74  170/  8/ 10 1025.3F
WVE H/P(F/S)=  3/ 8 SWL H/P/D(F/S/D)=  3/170/ 8

CAPE LOOKOUT     1700            65     110/ 10/ 10 1024.6F
ONSLOW BAY 41036 NOT AVBL
ONSLOW BAY 41064 1608            68     120/  2/  4 1024.9F
ONSLOW BAY 41159 1643               65                N/A
WVE H/P(F/S)=  3/ 8

MASNBO INL 41110 1659               60                N/A
WVE H/P(F/S)=  3/ 8

WILM HARBR 41108 1647               59                N/A
WVE H/P(F/S)=  3/ 8

27SE WRITB 41037 1608            68 64   70/  2/  4 1023.6F
FRYING PAN 41013 1650            71 74  130/ 12/ 17 1024.0S
WVE H/P(F/S)=  4/ 6 SWL H/P/D(F/S/D)=  2/140/ 7

SUNST NRSH 41024 NOT AVBL
CAPRS NRSH 41029 1608            65      90/  4/  6 1023.4F
EDISTO     41004 1650            72 72  150/ 12/ 14 1022.8F
WVE H/P(F/S)=  4/ 8 SWL H/P/D(F/S/D)=  3/130/ 8



..........OFFSHORE BUOYS BEYOND 100 NM OFFSHORE...........
.....IN A TRIANGLE---HAT TO BERMUDA TO BAHAMAS TO HAT.....


STATION/POSITION TIME  SKY/WX   TEMP    WIND        PRES    VSBY
                                AIR SEA DIR/SP/G
                 (UTC)          (F)     (DEG/KT/KT) (MB)    (MI)
150E HAT   41001 NOT AVBL
W BERMUDA  41048 1650            65 68   80/ 14/ 16 1024.8F
WVE H/P(F/S)=  5/ 9 SWL H/P/D(F/S/D)=  3/130/ 9

ATLANTIC S 41049 1650            70 72   80/ 19/ 23 1020.4F
WVE H/P(F/S)= 10/ 9 SWL H/P/D(F/S/D)=  3/240/14

E BAHAMAS  41046 NOT AVBL
NE BAHAMAS 41047 1700            71 72   60/ 21/ 27 1018.4
120E CANVRL41010 NOT AVBL

END




USA.gov is the U.S. government's official web portal to all federal, state and local government web resources and services.